Time,TemperatureF,DewpointF,PressureIn,WindDirection,WindDirectionDegrees,WindSpeedMPH,WindSpeedGustMPH,Humidity,HourlyPrecipIn,Conditions,Clouds,dailyrainin,SoftwareType,DateUTC
2013-01-26 16:48:00,6.7,-5.0,29.85,North,5,7.0,7.0,58,0.00,,,0.00,Wunderground v.1.15,2013-01-26 21:48:00,
2013-01-26 16:58:00,6.5,-5.2,29.85,North,350,3.0,7.0,58,0.00,,,0.00,Wunderground v.1.15,2013-01-26 21:58:00,
2013-01-26 17:08:00,6.2,-4.7,29.85,North,360,6.0,19.0,60,0.00,,,0.00,Wunderground v.1.15,2013-01-26 22:08:00,
2013-01-26 17:18:00,6.1,-4.1,29.86,NNW,340,6.0,6.0,62,0.00,,,0.00,Wunderground v.1.15,2013-01-26 22:18:00,
2013-01-26 17:28:00,6.0,-3.6,29.86,NNW,327,5.0,10.0,64,0.00,,,0.00,Wunderground v.1.15,2013-01-26 22:28:00,
2013-01-26 17:38:00,5.8,-3.4,29.87,NW,308,6.0,6.0,65,0.00,,,0.00,Wunderground v.1.15,2013-01-26 22:38:00,
2013-01-26 17:48:00,5.5,-3.4,29.87,NW,325,3.0,7.0,66,0.00,,,0.00,Wunderground v.1.15,2013-01-26 22:48:00,
2013-01-26 17:58:00,5.4,-2.9,29.87,WNW,296,6.0,6.0,68,0.00,,,0.00,Wunderground v.1.15,2013-01-26 22:58:00,
2013-01-26 18:08:00,5.3,-2.7,29.87,NNW,343,2.0,17.0,69,0.00,,,0.00,Wunderground v.1.15,2013-01-26 23:08:00,
2013-01-26 18:18:00,5.3,-2.1,29.87,NW,319,5.0,6.0,71,0.00,,,0.00,Wunderground v.1.15,2013-01-26 23:18:00,
2013-01-26 18:28:00,5.4,-2.0,29.87,NW,316,4.0,4.0,71,0.00,,,0.00,Wunderground v.1.15,2013-01-26 23:28:00,
2013-01-26 18:38:00,5.4,-1.7,29.87,NNW,327,3.0,7.0,72,0.00,,,0.00,Wunderground v.1.15,2013-01-26 23:38:00,
2013-01-26 18:48:00,5.4,-1.7,29.88,NW,321,3.0,7.0,72,0.00,,,0.00,Wunderground v.1.15,2013-01-26 23:48:00,
2013-01-26 18:58:00,5.3,-1.5,29.88,NNE,15,4.0,4.0,73,0.00,,,0.00,Wunderground v.1.15,2013-01-26 23:58:00,
2013-01-26 19:08:00,5.2,-1.3,29.89,NNW,339,1.0,16.0,74,0.00,,,0.00,Wunderground v.1.15,2013-01-27 00:08:00,
2013-01-26 19:18:00,5.2,-0.7,29.89,NW,325,2.0,2.0,76,0.00,,,0.00,Wunderground v.1.15,2013-01-27 00:18:00,
2013-01-26 19:28:00,5.4,-0.5,29.89,NW,321,2.0,4.0,76,0.00,,,0.00,Wunderground v.1.15,2013-01-27 00:28:00,
2013-01-26 19:38:00,5.5,-0.1,29.90,NNW,333,3.0,3.0,77,0.00,,,0.00,Wunderground v.1.15,2013-01-27 00:38:00,
2013-01-26 19:48:00,5.8,0.1,29.90,NNE,22,4.0,8.0,77,0.00,,,0.00,Wunderground v.1.15,2013-01-27 00:48:00,
2013-01-26 19:58:00,5.6,-0.1,29.90,NW,321,2.0,3.0,77,0.00,,,0.00,Wunderground v.1.15,2013-01-27 00:58:00,
2013-01-26 20:08:00,5.6,0.2,29.90,WNW,294,3.0,10.0,78,0.00,,,0.00,Wunderground v.1.15,2013-01-27 01:08:00,
2013-01-26 20:18:00,5.6,0.2,29.91,NW,304,4.0,6.0,78,0.00,,,0.00,Wunderground v.1.15,2013-01-27 01:18:00,
2013-01-26 20:28:00,5.9,0.2,29.91,NNE,19,4.0,4.0,77,0.00,,,0.00,Wunderground v.1.15,2013-01-27 01:28:00,
2013-01-26 20:38:00,6.3,0.6,29.91,WNW,284,7.0,8.0,77,0.00,,,0.00,Wunderground v.1.15,2013-01-27 01:38:00,
2013-01-26 20:48:00,6.5,0.8,29.91,NW,319,9.0,9.0,77,0.00,,,0.00,Wunderground v.1.15,2013-01-27 01:48:00,
2013-01-26 20:58:00,6.7,1.0,29.91,NW,317,8.0,8.0,77,0.00,,,0.00,Wunderground v.1.15,2013-01-27 01:58:00,
2013-01-26 21:08:00,6.8,1.1,29.91,NW,320,8.0,11.0,77,0.00,,,0.00,Wunderground v.1.15,2013-01-27 02:08:00,
2013-01-26 21:18:00,7.1,1.7,29.91,West,277,10.0,10.0,78,0.00,,,0.00,Wunderground v.1.15,2013-01-27 02:18:00,
2013-01-26 21:28:00,7.0,1.6,29.92,NW,322,8.0,8.0,78,0.00,,,0.00,Wunderground v.1.15,2013-01-27 02:28:00,
2013-01-26 21:38:00,6.9,1.5,29.92,WNW,300,9.0,9.0,78,0.00,,,0.00,Wunderground v.1.15,2013-01-27 02:38:00,
2013-01-26 21:48:00,7.0,1.6,29.93,WNW,291,10.0,12.0,78,0.00,,,0.00,Wunderground v.1.15,2013-01-27 02:48:00,
2013-01-26 21:58:00,7.3,1.9,29.93,NW,313,11.0,11.0,78,0.00,,,0.00,Wunderground v.1.15,2013-01-27 02:58:00,
2013-01-26 22:08:00,7.2,1.8,29.93,NW,317,9.0,17.0,78,0.00,,,0.00,Wunderground v.1.15,2013-01-27 03:08:00,
2013-01-26 22:18:00,7.2,1.8,29.94,NNW,327,11.0,11.0,78,0.00,,,0.00,Wunderground v.1.15,2013-01-27 03:18:00,
2013-01-26 22:28:00,7.1,2.0,29.94,NNW,341,10.0,10.0,79,0.00,,,0.00,Wunderground v.1.15,2013-01-27 03:28:00,
2013-01-26 22:38:00,7.3,1.9,29.94,NW,308,11.0,11.0,78,0.00,,,0.00,Wunderground v.1.15,2013-01-27 03:38:00,
2013-01-26 22:48:00,7.3,1.6,29.94,NW,318,9.0,10.0,77,0.00,,,0.00,Wunderground v.1.15,2013-01-27 03:48:00,
2013-01-26 22:58:00,7.4,2.0,29.95,NW,320,7.0,13.0,78,0.00,,,0.00,Wunderground v.1.15,2013-01-27 03:58:00,
2013-01-26 23:08:00,7.3,2.2,29.95,West,273,6.0,6.0,79,0.00,,,0.00,Wunderground v.1.15,2013-01-27 04:08:00,
2013-01-26 23:18:00,7.1,2.0,29.95,NW,320,3.0,3.0,79,0.00,,,0.00,Wunderground v.1.15,2013-01-27 04:18:00,
2013-01-26 23:28:00,7.1,2.2,29.95,NW,313,3.0,7.0,80,0.00,,,0.00,Wunderground v.1.15,2013-01-27 04:28:00,
2013-01-26 23:38:00,7.2,2.3,29.95,NNW,327,7.0,7.0,80,0.00,,,0.00,Wunderground v.1.15,2013-01-27 04:38:00,
2013-01-26 23:48:00,7.1,2.2,29.95,NNW,343,6.0,6.0,80,0.00,,,0.00,Wunderground v.1.15,2013-01-27 04:48:00,
2013-01-26 23:58:00,7.3,1.9,29.95,NW,319,8.0,8.0,78,0.00,,,0.00,Wunderground v.1.15,2013-01-27 04:58:00,